Retour au catalogue

IUS R/B(1)

ActifHEO
NORAD 21640·ROCKET BODY·🇺🇸 United States

Lancé Aug 2, 1991 depuis Cape Canaveral Space Force Station

Loading…

Prochains Passages (prochaines 24 heures)

TLE

FraisSource: Space-Track

Époque: Sep 14, 2026, 06:50 UTC

1 21640U 91054C   26257.28521740  .00001905  00000-0  53401-3 0  9994
2 21640  26.7518 345.1728 6630084 304.4193   9.7673  3.13081579342812

Suivez IUS R/B(1) en temps réel avec AllMySat

Download on the App Store